| time (UTC) | temp F | wind direction | speed MPH | gust MPH | rain 1hr in | rain 24hr in | rain mn in | humidity % | barometer mb |
| 20260904045115 | 81 | 182 | 1.0 | 2.0 | 0.00 | 0.00 | 0.00 | 74 | 1013.5 |
| 20260904044557 | 81 | 182 | 1.0 | 3.0 | 0.00 | 0.00 | 0.00 | 74 | 1013.6 |
| 20260904044054 | 81 | 179 | 1.0 | 2.0 | 0.00 | 0.00 | 0.00 | 74 | 1013.6 |
| 20260904043532 | 81 | 166 | 1.0 | 2.0 | 0.00 | 0.00 | 0.00 | 74 | 1013.7 |
| 20260904043115 | 82 | 195 | 1.0 | 2.0 | 0.00 | 0.00 | 0.00 | 74 | 1013.7 |
| 20260904042616 | 82 | 181 | 1.0 | 2.0 | 0.00 | 0.00 | 0.00 | 74 | 1013.6 |
| 20260904042036 | 82 | 163 | 1.0 | 2.0 | 0.00 | 0.00 | 0.00 | 74 | 1013.5 |
| 20260904041613 | 82 | 197 | 2.0 | 3.0 | 0.00 | 0.00 | 0.00 | 73 | 1013.5 |
| 20260904041136 | 82 | 184 | 1.0 | 3.0 | 0.00 | 0.00 | 0.00 | 73 | 1013.4 |
| 20260904040615 | 82 | 182 | 2.0 | 3.0 | 0.00 | 0.00 | 0.00 | 72 | 1013.5 |
| 20260904040035 | 83 | 169 | 1.0 | 2.0 | 0.00 | 0.00 | 0.00 | 72 | 1013.6 |
| 20260904035619 | 83 | 170 | 1.0 | 2.0 | 0.00 | 0.00 | 0.00 | 72 | 1013.6 |
| 20260904035059 | 83 | 178 | 1.0 | 2.0 | 0.00 | 0.00 | 0.00 | 72 | 1013.6 |
| 20260904034540 | 83 | 164 | 1.0 | 2.0 | 0.00 | 0.00 | 0.00 | 71 | 1013.6 |
| 20260904034034 | 83 | 182 | 1.0 | 2.0 | 0.00 | 0.00 | 0.00 | 71 | 1013.6 |
| 20260904033534 | 83 | 183 | 1.0 | 2.0 | 0.00 | 0.00 | 0.00 | 70 | 1013.5 |
| 20260904033029 | 84 | 181 | 1.0 | 2.0 | 0.00 | 0.00 | 0.00 | 71 | 1013.4 |
| 20260904032652 | 84 | 175 | 1.0 | 2.0 | 0.00 | 0.00 | 0.00 | 70 | 1013.4 |
| 20260904032111 | 84 | 180 | 2.0 | 2.0 | 0.00 | 0.00 | 0.00 | 70 | 1013.3 |
| 20260904031533 | 84 | 200 | 2.0 | 5.0 | 0.00 | 0.00 | 0.00 | 70 | 1013.4 |
| 20260904031156 | 84 | 164 | 1.0 | 2.0 | 0.00 | 0.00 | 0.00 | 70 | 1013.3 |
| 20260904030556 | 84 | 175 | 1.0 | 3.0 | 0.00 | 0.00 | 0.00 | 70 | 1013.2 |
| 20260904030034 | 84 | 178 | 1.0 | 2.0 | 0.00 | 0.00 | 0.00 | 69 | 1013.3 |
| 20260904025534 | 84 | 179 | 1.0 | 2.0 | 0.00 | 0.00 | 0.00 | 67 | 1013.3 |
| 20260904025048 | 84 | 176 | 1.0 | 2.0 | 0.00 | 0.00 | 0.00 | 66 | 1013.3 |
| 20260904024611 | 84 | 175 | 1.0 | 3.0 | 0.00 | 0.00 | 0.00 | 66 | 1013.2 |
| 20260904024112 | 84 | 171 | 2.0 | 5.0 | 0.00 | 0.00 | 0.00 | 66 | 1013.1 |
| 20260904023532 | 84 | 184 | 2.0 | 3.0 | 0.00 | 0.00 | 0.00 | 65 | 1013.1 |
| 20260904023115 | 84 | 204 | 2.0 | 3.0 | 0.00 | 0.00 | 0.00 | 65 | 1012.9 |
| 20260904022555 | 85 | 174 | 1.0 | 3.0 | 0.00 | 0.00 | 0.00 | 65 | 1012.9 |
| 20260904022034 | 85 | 194 | 2.0 | 3.0 | 0.00 | 0.00 | 0.00 | 65 | 1012.7 |
| 20260904021533 | 85 | 188 | 2.0 | 2.0 | 0.00 | 0.00 | 0.00 | 66 | 1012.6 |
| 20260904021115 | 85 | 192 | 2.0 | 5.0 | 0.00 | 0.00 | 0.00 | 66 | 1012.5 |
| 20260904020556 | 85 | 181 | 1.0 | 2.0 | 0.00 | 0.00 | 0.00 | 67 | 1012.4 |
| 20260904020035 | 85 | 195 | 2.0 | 5.0 | 0.00 | 0.00 | 0.00 | 67 | 1012.3 |
| 20260904015620 | 85 | 181 | 2.0 | 3.0 | 0.00 | 0.00 | 0.00 | 67 | 1012.1 |
| 20260904015059 | 86 | 171 | 2.0 | 3.0 | 0.00 | 0.00 | 0.00 | 67 | 1012.0 |
| 20260904014534 | 86 | 186 | 2.0 | 3.0 | 0.00 | 0.00 | 0.00 | 67 | 1012.0 |
| 20260904014053 | 86 | 179 | 1.0 | 3.0 | 0.00 | 0.00 | 0.00 | 67 | 1012.0 |
| 20260904013532 | 86 | 190 | 2.0 | 3.0 | 0.00 | 0.00 | 0.00 | 67 | 1011.9 |
| 20260904013116 | 86 | 186 | 2.0 | 3.0 | 0.00 | 0.00 | 0.00 | 68 | 1011.9 |
| 20260904012555 | 86 | 166 | 1.0 | 1.0 | 0.00 | 0.00 | 0.00 | 68 | 1011.8 |
| 20260904012034 | 86 | 175 | 1.0 | 2.0 | 0.00 | 0.00 | 0.00 | 67 | 1011.7 |
| 20260904011533 | 87 | 171 | 1.0 | 3.0 | 0.00 | 0.00 | 0.00 | 67 | 1011.6 |
| 20260904011116 | 87 | 165 | 2.0 | 3.0 | 0.00 | 0.00 | 0.00 | 67 | 1011.6 |
| 20260904010556 | 87 | 187 | 2.0 | 3.0 | 0.00 | 0.00 | 0.00 | 67 | 1011.7 |
| 20260904010034 | 87 | 183 | 1.0 | 2.0 | 0.00 | 0.00 | 0.00 | 67 | 1011.6 |
| 20260904005620 | 87 | 179 | 1.0 | 2.0 | 0.00 | 0.00 | 0.00 | 67 | 1011.5 |
| 20260904005120 | 88 | 168 | 1.0 | 3.0 | 0.00 | 0.00 | 0.00 | 66 | 1011.6 |
| 20260904004535 | 88 | 183 | 2.0 | 3.0 | 0.00 | 0.00 | 0.00 | 66 | 1011.4 |
| 20260904004020 | 88 | 186 | 3.0 | 5.0 | 0.00 | 0.00 | 0.00 | 65 | 1011.4 |
| 20260904003603 | 89 | 188 | 2.0 | 5.0 | 0.00 | 0.00 | 0.00 | 65 | 1011.4 |
| 20260904003044 | 89 | 175 | 2.0 | 2.0 | 0.00 | 0.00 | 0.00 | 65 | 1011.4 |
| 20260904002534 | 89 | 175 | 1.0 | 2.0 | 0.00 | 0.00 | 0.00 | 64 | 1011.5 |
| 20260904002034 | 90 | 172 | 2.0 | 3.0 | 0.00 | 0.00 | 0.00 | 63 | 1011.3 |
| 20260904001533 | 90 | 187 | 2.0 | 3.0 | 0.00 | 0.00 | 0.00 | 63 | 1011.3 |
| 20260904001136 | 90 | 211 | 2.0 | 3.0 | 0.00 | 0.00 | 0.00 | 63 | 1011.3 |
| 20260904000556 | 90 | 182 | 1.0 | 2.0 | 0.00 | 0.00 | 0.00 | 63 | 1011.3 |
| 20260904000034 | 91 | 188 | 2.0 | 3.0 | 0.00 | 0.00 | 0.00 | 62 | 1011.1 |
| 20260903235619 | 91 | 189 | 2.0 | 3.0 | 0.00 | 0.00 | 0.00 | 62 | 1011.1 |
| 20260903235059 | 91 | 141 | 1.0 | 2.0 | 0.00 | 0.00 | 0.00 | 62 | 1011.2 |
| 20260903234535 | 91 | 179 | 2.0 | 3.0 | 0.00 | 0.00 | 0.00 | 61 | 1011.1 |
| 20260903234040 | 91 | 168 | 1.0 | 2.0 | 0.00 | 0.00 | 0.00 | 61 | 1011.0 |
| 20260903233604 | 92 | 193 | 1.0 | 3.0 | 0.00 | 0.00 | 0.00 | 61 | 1011.0 |
| 20260903233044 | 92 | 182 | 2.0 | 5.0 | 0.00 | 0.00 | 0.00 | 60 | 1011.1 |
| 20260903232524 | 93 | 188 | 2.0 | 3.0 | 0.00 | 0.00 | 0.00 | 60 | 1010.9 |
| 20260903232108 | 93 | 189 | 2.0 | 5.0 | 0.00 | 0.00 | 0.00 | 60 | 1010.8 |
| 20260903231609 | 93 | 193 | 2.0 | 5.0 | 0.00 | 0.00 | 0.00 | 60 | 1010.8 |
| 20260903231049 | 93 | 151 | 2.0 | 5.0 | 0.00 | 0.00 | 0.00 | 60 | 1010.7 |
| 20260903230612 | 93 | 154 | 1.0 | 2.0 | 0.00 | 0.00 | 0.00 | 60 | 1010.8 |
| 20260903230053 | 93 | 190 | 3.0 | 8.0 | 0.00 | 0.00 | 0.00 | 60 | 1010.8 |
| 20260903225534 | 94 | 196 | 2.0 | 3.0 | 0.00 | 0.00 | 0.00 | 59 | 1010.8 |
| 20260903225028 | 94 | 162 | 2.0 | 6.0 | 0.00 | 0.00 | 0.00 | 59 | 1010.8 |
| 20260903224612 | 94 | 168 | 2.0 | 2.0 | 0.00 | 0.00 | 0.00 | 59 | 1010.9 |
| 20260903224051 | 94 | 221 | 3.0 | 10.0 | 0.00 | 0.00 | 0.00 | 59 | 1010.7 |
| 20260903223554 | 94 | 212 | 2.0 | 3.0 | 0.00 | 0.00 | 0.00 | 58 | 1010.7 |
| 20260903223050 | 93 | 189 | 2.0 | 5.0 | 0.00 | 0.00 | 0.00 | 60 | 1010.8 |
| 20260903222611 | 93 | 154 | 1.0 | 3.0 | 0.00 | 0.00 | 0.00 | 61 | 1010.7 |
| 20260903222051 | 93 | 187 | 2.0 | 5.0 | 0.00 | 0.00 | 0.00 | 60 | 1010.7 |
| 20260903221535 | 93 | 160 | 2.0 | 3.0 | 0.00 | 0.00 | 0.00 | 59 | 1010.7 |
| 20260903221028 | 94 | 191 | 2.0 | 5.0 | 0.00 | 0.00 | 0.00 | 58 | 1010.7 |
| 20260903220612 | 95 | 183 | 2.0 | 3.0 | 0.00 | 0.00 | 0.00 | 57 | 1010.8 |
| 20260903220052 | 96 | 201 | 2.0 | 5.0 | 0.00 | 0.00 | 0.00 | 57 | 1010.7 |
| 20260903215532 | 95 | 182 | 2.0 | 3.0 | 0.00 | 0.00 | 0.00 | 58 | 1010.8 |
| 20260903215115 | 95 | 199 | 3.0 | 6.0 | 0.00 | 0.00 | 0.00 | 57 | 1010.8 |
| 20260903214556 | 95 | 179 | 2.0 | 3.0 | 0.00 | 0.00 | 0.00 | 57 | 1010.7 |
| 20260903214034 | 96 | 196 | 3.0 | 7.0 | 0.00 | 0.00 | 0.00 | 56 | 1010.7 |
| 20260903213552 | 97 | 197 | 2.0 | 5.0 | 0.00 | 0.00 | 0.00 | 56 | 1010.7 |
| 20260903213115 | 97 | 182 | 2.0 | 3.0 | 0.00 | 0.00 | 0.00 | 56 | 1010.8 |
| 20260903212556 | 96 | 188 | 1.0 | 3.0 | 0.00 | 0.00 | 0.00 | 56 | 1010.9 |
| 20260903212034 | 96 | 182 | 2.0 | 3.0 | 0.00 | 0.00 | 0.00 | 56 | 1010.9 |
| 20260903211534 | 96 | 190 | 2.0 | 3.0 | 0.00 | 0.00 | 0.00 | 56 | 1011.0 |
| 20260903211028 | 95 | 194 | 2.0 | 5.0 | 0.00 | 0.00 | 0.00 | 57 | 1011.0 |
| 20260903210612 | 95 | 182 | 2.0 | 3.0 | 0.00 | 0.00 | 0.00 | 58 | 1011.0 |
| 20260903210053 | 94 | 200 | 2.0 | 3.0 | 0.00 | 0.00 | 0.00 | 58 | 1011.1 |
| 20260903205532 | 95 | 209 | 1.0 | 3.0 | 0.00 | 0.00 | 0.00 | 57 | 1011.3 |
| 20260903205115 | 95 | 214 | 1.0 | 5.0 | 0.00 | 0.00 | 0.00 | 57 | 1011.2 |
| 20260903204556 | 95 | 200 | 2.0 | 2.0 | 0.00 | 0.00 | 0.00 | 58 | 1011.4 |
| 20260903204036 | 95 | 200 | 2.0 | 3.0 | 0.00 | 0.00 | 0.00 | 57 | 1011.5 |
| 20260903203554 | 96 | 177 | 2.0 | 5.0 | 0.00 | 0.00 | 0.00 | 56 | 1011.5 |
| 20260903203034 | 97 | 207 | 2.0 | 5.0 | 0.00 | 0.00 | 0.00 | 54 | 1011.5 |
| 20260903202534 | 96 | 196 | 2.0 | 6.0 | 0.00 | 0.00 | 0.00 | 55 | 1011.5 |
| 20260903202020 | 97 | 177 | 2.0 | 3.0 | 0.00 | 0.00 | 0.00 | 55 | 1011.7 |
| 20260903201603 | 96 | 187 | 2.0 | 2.0 | 0.00 | 0.00 | 0.00 | 56 | 1011.7 |
| 20260903201045 | 97 | 195 | 2.0 | 5.0 | 0.00 | 0.00 | 0.00 | 55 | 1011.7 |
| 20260903200545 | 96 | 188 | 2.0 | 5.0 | 0.00 | 0.00 | 0.00 | 54 | 1011.7 |
| 20260903200107 | 96 | 173 | 2.0 | 3.0 | 0.00 | 0.00 | 0.00 | 56 | 1011.8 |
| 20260903195548 | 96 | 179 | 2.0 | 3.0 | 0.00 | 0.00 | 0.00 | 55 | 1011.8 |
| 20260903195034 | 96 | 183 | 2.0 | 5.0 | 0.00 | 0.00 | 0.00 | 56 | 1011.9 |
| 20260903194535 | 96 | 185 | 2.0 | 3.0 | 0.00 | 0.00 | 0.00 | 56 | 1012.0 |
| 20260903194033 | 96 | 194 | 2.0 | 5.0 | 0.00 | 0.00 | 0.00 | 55 | 1012.0 |
| 20260903193534 | 97 | 185 | 2.0 | 3.0 | 0.00 | 0.00 | 0.00 | 55 | 1012.0 |
| 20260903193055 | 97 | 175 | 2.0 | 3.0 | 0.00 | 0.00 | 0.00 | 55 | 1012.2 |
| 20260903192534 | 97 | 195 | 2.0 | 5.0 | 0.00 | 0.00 | 0.00 | 55 | 1012.1 |
| 20260903192054 | 96 | 182 | 1.0 | 2.0 | 0.00 | 0.00 | 0.00 | 55 | 1012.3 |
| 20260903191555 | 96 | 185 | 1.0 | 2.0 | 0.00 | 0.00 | 0.00 | 55 | 1012.5 |
| 20260903191054 | 95 | 189 | 1.0 | 3.0 | 0.00 | 0.00 | 0.00 | 57 | 1012.5 |
| 20260903190524 | 94 | 164 | 2.0 | 3.0 | 0.00 | 0.00 | 0.00 | 59 | 1012.6 |
| 20260903190108 | 93 | 172 | 2.0 | 2.0 | 0.00 | 0.00 | 0.00 | 60 | 1012.8 |
| 20260903185548 | 93 | 200 | 2.0 | 3.0 | 0.00 | 0.00 | 0.00 | 60 | 1012.9 |
| 20260903185033 | 94 | 175 | 1.0 | 2.0 | 0.00 | 0.00 | 0.00 | 59 | 1012.9 |
| 20260903184534 | 94 | 210 | 2.0 | 3.0 | 0.00 | 0.00 | 0.00 | 59 | 1013.0 |
| 20260903184034 | 95 | 200 | 2.0 | 3.0 | 0.00 | 0.00 | 0.00 | 59 | 1013.1 |
| 20260903183534 | 94 | 208 | 2.0 | 5.0 | 0.00 | 0.00 | 0.00 | 60 | 1013.1 |
| 20260903183034 | 94 | 200 | 2.0 | 6.0 | 0.00 | 0.00 | 0.00 | 59 | 1013.2 |
| 20260903182534 | 94 | 196 | 2.0 | 5.0 | 0.00 | 0.00 | 0.00 | 60 | 1013.3 |
| 20260903182034 | 94 | 208 | 2.0 | 5.0 | 0.00 | 0.00 | 0.00 | 60 | 1013.2 |
| 20260903181535 | 93 | 196 | 2.0 | 8.0 | 0.00 | 0.00 | 0.00 | 62 | 1013.4 |
| 20260903181034 | 92 | 195 | 2.0 | 5.0 | 0.00 | 0.00 | 0.00 | 62 | 1013.3 |
| 20260903180534 | 93 | 203 | 2.0 | 5.0 | 0.00 | 0.00 | 0.00 | 63 | 1013.4 |
| 20260903180021 | 93 | 188 | 2.0 | 3.0 | 0.00 | 0.00 | 0.00 | 62 | 1013.4 |
| 20260903175604 | 92 | 184 | 2.0 | 3.0 | 0.00 | 0.00 | 0.00 | 62 | 1013.5 |
| 20260903175034 | 92 | 215 | 2.0 | 6.0 | 0.00 | 0.00 | 0.00 | 62 | 1013.6 |
| 20260903174534 | 91 | 201 | 2.0 | 5.0 | 0.00 | 0.00 | 0.00 | 64 | 1013.6 |
| 20260903174034 | 91 | 197 | 2.0 | 3.0 | 0.00 | 0.00 | 0.00 | 63 | 1013.7 |
| 20260903173534 | 91 | 183 | 2.0 | 5.0 | 0.00 | 0.00 | 0.00 | 64 | 1013.8 |
| 20260903173034 | 90 | 185 | 2.0 | 3.0 | 0.00 | 0.00 | 0.00 | 65 | 1013.9 |
| 20260903172533 | 89 | 227 | 2.0 | 3.0 | 0.00 | 0.00 | 0.00 | 66 | 1014.0 |
| 20260903172034 | 89 | 189 | 2.0 | 3.0 | 0.00 | 0.00 | 0.00 | 67 | 1013.8 |
| 20260903171535 | 90 | 190 | 2.0 | 3.0 | 0.00 | 0.00 | 0.00 | 66 | 1013.8 |
| 20260903171034 | 90 | 192 | 2.0 | 3.0 | 0.00 | 0.00 | 0.00 | 65 | 1013.9 |
| 20260903170534 | 91 | 183 | 2.0 | 6.0 | 0.00 | 0.00 | 0.00 | 64 | 1013.9 |
| 20260903170021 | 92 | 183 | 2.0 | 5.0 | 0.00 | 0.00 | 0.00 | 63 | 1013.9 |
| 20260903165604 | 90 | 196 | 1.0 | 3.0 | 0.00 | 0.00 | 0.00 | 66 | 1013.9 |
| 20260903165104 | 90 | 187 | 2.0 | 3.0 | 0.00 | 0.00 | 0.00 | 66 | 1014.0 |
| 20260903164534 | 90 | 183 | 2.0 | 5.0 | 0.00 | 0.00 | 0.00 | 65 | 1014.0 |
| 20260903164034 | 90 | 181 | 1.0 | 3.0 | 0.00 | 0.00 | 0.00 | 66 | 1014.0 |
| 20260903163534 | 89 | 187 | 2.0 | 5.0 | 0.00 | 0.00 | 0.00 | 67 | 1014.1 |
| 20260903163029 | 89 | 184 | 1.0 | 3.0 | 0.00 | 0.00 | 0.00 | 68 | 1014.1 |
| 20260903162612 | 88 | 122 | 2.0 | 7.0 | 0.00 | 0.00 | 0.00 | 69 | 1014.1 |
| 20260903162112 | 88 | 217 | 2.0 | 5.0 | 0.00 | 0.00 | 0.00 | 69 | 1014.1 |
| 20260903161535 | 88 | 188 | 2.0 | 5.0 | 0.00 | 0.00 | 0.00 | 70 | 1014.2 |
| 20260903161114 | 88 | 185 | 2.0 | 2.0 | 0.00 | 0.00 | 0.00 | 69 | 1014.2 |
| 20260903160525 | 87 | 171 | 1.0 | 3.0 | 0.00 | 0.00 | 0.00 | 71 | 1014.2 |
| 20260903160108 | 87 | 188 | 2.0 | 2.0 | 0.00 | 0.00 | 0.00 | 71 | 1014.2 |
| 20260903155548 | 87 | 186 | 2.0 | 3.0 | 0.00 | 0.00 | 0.00 | 71 | 1014.2 |
| 20260903155033 | 87 | 186 | 2.0 | 3.0 | 0.00 | 0.00 | 0.00 | 72 | 1014.1 |
| 20260903154534 | 86 | 171 | 2.0 | 3.0 | 0.00 | 0.00 | 0.00 | 73 | 1014.1 |
| 20260903154034 | 86 | 195 | 2.0 | 3.0 | 0.00 | 0.00 | 0.00 | 73 | 1014.1 |
| 20260903153533 | 85 | 184 | 2.0 | 5.0 | 0.00 | 0.00 | 0.00 | 74 | 1014.0 |
| 20260903153034 | 85 | 181 | 1.0 | 5.0 | 0.00 | 0.00 | 0.00 | 75 | 1014.1 |
| 20260903152525 | 84 | 149 | 1.0 | 3.0 | 0.00 | 0.00 | 0.00 | 76 | 1014.1 |
| 20260903152108 | 83 | 178 | 2.0 | 3.0 | 0.00 | 0.00 | 0.00 | 77 | 1014.1 |
| 20260903151549 | 84 | 181 | 1.0 | 2.0 | 0.00 | 0.00 | 0.00 | 76 | 1014.2 |
| 20260903151034 | 85 | 165 | 2.0 | 5.0 | 0.00 | 0.00 | 0.00 | 75 | 1014.2 |
| 20260903150534 | 85 | 180 | 1.0 | 2.0 | 0.00 | 0.00 | 0.00 | 74 | 1014.1 |
| 20260903150034 | 84 | 193 | 2.0 | 6.0 | 0.00 | 0.00 | 0.00 | 74 | 1014.0 |
| 20260903145533 | 84 | 180 | 1.0 | 2.0 | 0.00 | 0.00 | 0.00 | 75 | 1014.2 |
| 20260903145033 | 84 | 162 | 1.0 | 2.0 | 0.00 | 0.00 | 0.00 | 76 | 1014.1 |
| 20260903144534 | 83 | 186 | 1.0 | 2.0 | 0.00 | 0.00 | 0.00 | 77 | 1014.0 |
| 20260903144034 | 83 | 189 | 1.0 | 3.0 | 0.00 | 0.00 | 0.00 | 77 | 1014.2 |
| 20260903143534 | 82 | 177 | 1.0 | 2.0 | 0.00 | 0.00 | 0.00 | 78 | 1014.3 |
| 20260903143035 | 82 | 156 | 2.0 | 8.0 | 0.00 | 0.00 | 0.00 | 78 | 1014.1 |
| 20260903142525 | 81 | 168 | 0.0 | 1.0 | 0.00 | 0.00 | 0.00 | 80 | 1014.1 |
| 20260903142108 | 81 | 174 | 1.0 | 5.0 | 0.00 | 0.00 | 0.00 | 79 | 1014.2 |
| 20260903141549 | 82 | 146 | 1.0 | 5.0 | 0.00 | 0.00 | 0.00 | 79 | 1014.2 |
| 20260903141033 | 82 | 176 | 1.0 | 2.0 | 0.00 | 0.00 | 0.00 | 78 | 1014.2 |
| 20260903140534 | 82 | 169 | 1.0 | 5.0 | 0.00 | 0.00 | 0.00 | 77 | 1014.2 |
| 20260903140034 | 82 | 168 | 1.0 | 2.0 | 0.00 | 0.00 | 0.00 | 77 | 1014.2 |
| 20260903135534 | 81 | 181 | 1.0 | 2.0 | 0.00 | 0.00 | 0.00 | 78 | 1014.1 |
| 20260903135034 | 81 | 188 | 1.0 | 2.0 | 0.00 | 0.00 | 0.00 | 78 | 1014.1 |
| 20260903134535 | 81 | 155 | 1.0 | 2.0 | 0.00 | 0.00 | 0.00 | 78 | 1014.0 |
| 20260903134034 | 81 | 182 | 1.0 | 2.0 | 0.00 | 0.00 | 0.00 | 78 | 1014.0 |
| 20260903133554 | 81 | 174 | 1.0 | 2.0 | 0.00 | 0.00 | 0.00 | 79 | 1014.1 |
| 20260903133035 | 81 | 173 | 1.0 | 1.0 | 0.00 | 0.00 | 0.00 | 79 | 1014.1 |
| 20260903132533 | 80 | 175 | 0.0 | 1.0 | 0.00 | 0.00 | 0.00 | 80 | 1014.0 |
| 20260903132041 | 80 | 167 | 1.0 | 1.0 | 0.00 | 0.00 | 0.00 | 81 | 1014.0 |
| 20260903131604 | 78 | 0.0 | 0.0 | 0.00 | 0.00 | 0.00 | 85 | 1014.3 | |
| 20260903131034 | 76 | 166 | 0.0 | 1.0 | 0.00 | 0.00 | 0.00 | 88 | 1014.2 |
| 20260903130534 | 76 | 0.0 | 0.0 | 0.00 | 0.00 | 0.00 | 88 | 1014.2 | |
| 20260903130156 | 76 | 0.0 | 0.0 | 0.00 | 0.00 | 0.00 | 88 | 1014.0 | |
| 20260903125534 | 76 | 0.0 | 0.0 | 0.00 | 0.00 | 0.00 | 88 | 1014.1 | |
| 20260903125114 | 76 | 168 | 0.0 | 1.0 | 0.00 | 0.00 | 0.00 | 87 | 1014.1 |
| 20260903124534 | 76 | 0.0 | 0.0 | 0.00 | 0.00 | 0.00 | 88 | 1014.0 | |
| 20260903124034 | 76 | 177 | 0.0 | 1.0 | 0.00 | 0.00 | 0.00 | 88 | 1014.0 |
| 20260903123534 | 76 | 187 | 0.0 | 1.0 | 0.00 | 0.00 | 0.00 | 88 | 1014.0 |
| 20260903123034 | 76 | 0.0 | 0.0 | 0.00 | 0.00 | 0.00 | 88 | 1013.9 | |
| 20260903122533 | 75 | 168 | 0.0 | 1.0 | 0.00 | 0.00 | 0.00 | 88 | 1014.0 |
| 20260903122034 | 75 | 167 | 0.0 | 1.0 | 0.00 | 0.00 | 0.00 | 88 | 1013.9 |
| 20260903121534 | 75 | 173 | 0.0 | 1.0 | 0.00 | 0.00 | 0.00 | 88 | 1014.0 |
| 20260903121033 | 75 | 0.0 | 0.0 | 0.00 | 0.00 | 0.00 | 88 | 1013.9 | |
| 20260903120534 | 75 | 163 | 0.0 | 1.0 | 0.00 | 0.00 | 0.00 | 88 | 1013.9 |
| 20260903120022 | 75 | 158 | 0.0 | 1.0 | 0.00 | 0.00 | 0.00 | 88 | 1013.8 |
| 20260903115604 | 75 | 160 | 0.0 | 1.0 | 0.00 | 0.00 | 0.00 | 88 | 1013.7 |
| 20260903115044 | 75 | 151 | 0.0 | 2.0 | 0.00 | 0.00 | 0.00 | 88 | 1013.7 |
| 20260903114534 | 75 | 172 | 0.0 | 1.0 | 0.00 | 0.00 | 0.00 | 88 | 1013.6 |
| 20260903114034 | 75 | 160 | 0.0 | 1.0 | 0.00 | 0.00 | 0.00 | 88 | 1013.6 |
| 20260903113534 | 75 | 164 | 0.0 | 1.0 | 0.00 | 0.00 | 0.00 | 89 | 1013.7 |
| 20260903113034 | 75 | 155 | 0.0 | 1.0 | 0.00 | 0.00 | 0.00 | 89 | 1013.6 |
| 20260903112554 | 75 | 142 | 0.0 | 2.0 | 0.00 | 0.00 | 0.00 | 89 | 1013.6 |
| 20260903112034 | 75 | 149 | 0.0 | 1.0 | 0.00 | 0.00 | 0.00 | 89 | 1013.5 |
| 20260903111554 | 75 | 143 | 0.0 | 1.0 | 0.00 | 0.00 | 0.00 | 89 | 1013.6 |
| 20260903111034 | 75 | 0.0 | 0.0 | 0.00 | 0.00 | 0.00 | 89 | 1013.6 | |
| 20260903110554 | 75 | 156 | 0.0 | 1.0 | 0.00 | 0.00 | 0.00 | 88 | 1013.5 |
| 20260903110054 | 75 | 0.0 | 0.0 | 0.00 | 0.00 | 0.00 | 88 | 1013.4 | |
| 20260903105534 | 75 | 153 | 0.0 | 1.0 | 0.00 | 0.00 | 0.00 | 88 | 1013.3 |
| 20260903105034 | 75 | 155 | 0.0 | 1.0 | 0.00 | 0.00 | 0.00 | 87 | 1013.3 |
| 20260903104534 | 75 | 149 | 0.0 | 2.0 | 0.00 | 0.00 | 0.00 | 87 | 1013.3 |
| 20260903104034 | 75 | 147 | 1.0 | 2.0 | 0.00 | 0.00 | 0.00 | 87 | 1013.3 |
| 20260903103534 | 75 | 134 | 1.0 | 2.0 | 0.00 | 0.00 | 0.00 | 87 | 1013.3 |
| 20260903103055 | 75 | 151 | 0.0 | 1.0 | 0.00 | 0.00 | 0.00 | 86 | 1013.4 |
| 20260903102525 | 75 | 154 | 1.0 | 1.0 | 0.00 | 0.00 | 0.00 | 86 | 1013.4 |
| 20260903102108 | 75 | 146 | 1.0 | 3.0 | 0.00 | 0.00 | 0.00 | 86 | 1013.2 |
| 20260903101609 | 75 | 129 | 0.0 | 1.0 | 0.00 | 0.00 | 0.00 | 86 | 1013.4 |
| 20260903100534 | 75 | 147 | 0.0 | 1.0 | 0.00 | 0.00 | 0.00 | 87 | 1013.5 |
| 20260903100034 | 75 | 143 | 0.0 | 1.0 | 0.00 | 0.00 | 0.00 | 87 | 1013.5 |
| 20260903095620 | 75 | 0.0 | 0.0 | 0.00 | 0.00 | 0.00 | 87 | 1013.6 | |
| 20260903095100 | 75 | 0.0 | 0.0 | 0.00 | 0.00 | 0.00 | 87 | 1013.5 | |
| 20260903094602 | 75 | 0.0 | 0.0 | 0.00 | 0.00 | 0.00 | 87 | 1013.5 | |
| 20260903094034 | 75 | 0.0 | 0.0 | 0.00 | 0.00 | 0.00 | 87 | 1013.4 | |
| 20260903093534 | 75 | 165 | 0.0 | 1.0 | 0.00 | 0.00 | 0.00 | 87 | 1013.5 |
| 20260903093034 | 75 | 0.0 | 0.0 | 0.00 | 0.00 | 0.00 | 87 | 1013.4 | |
| 20260903092545 | 75 | 0.0 | 0.0 | 0.00 | 0.00 | 0.00 | 87 | 1013.5 | |
| 20260903092109 | 75 | 0.0 | 0.0 | 0.00 | 0.00 | 0.00 | 87 | 1013.5 | |
| 20260903091549 | 75 | 165 | 0.0 | 1.0 | 0.00 | 0.00 | 0.00 | 87 | 1013.5 |
| 20260903091033 | 75 | 0.0 | 0.0 | 0.00 | 0.00 | 0.00 | 86 | 1013.5 | |
| 20260903090533 | 75 | 0.0 | 0.0 | 0.00 | 0.00 | 0.00 | 86 | 1013.5 | |
| 20260903090035 | 75 | 0.0 | 0.0 | 0.00 | 0.00 | 0.00 | 86 | 1013.4 | |
| 20260903085533 | 75 | 0.0 | 0.0 | 0.00 | 0.00 | 0.00 | 86 | 1013.6 | |
| 20260903085136 | 75 | 0.0 | 0.0 | 0.00 | 0.00 | 0.00 | 85 | 1013.7 | |
| 20260903084557 | 75 | 0.0 | 0.0 | 0.00 | 0.00 | 0.00 | 85 | 1013.5 | |
| 20260903084034 | 75 | 0.0 | 0.0 | 0.00 | 0.00 | 0.00 | 85 | 1013.6 | |
| 20260903083533 | 76 | 0.0 | 0.0 | 0.00 | 0.00 | 0.00 | 85 | 1013.6 | |
| 20260903083034 | 76 | 0.0 | 0.0 | 0.00 | 0.00 | 0.00 | 84 | 1013.6 | |
| 20260903082554 | 76 | 0.0 | 0.0 | 0.00 | 0.00 | 0.00 | 84 | 1013.4 | |
| 20260903082034 | 76 | 0.0 | 0.0 | 0.00 | 0.00 | 0.00 | 83 | 1013.5 | |
| 20260903081534 | 77 | 0.0 | 0.0 | 0.00 | 0.00 | 0.00 | 83 | 1013.4 | |
| 20260903081034 | 76 | 165 | 0.0 | 1.0 | 0.00 | 0.00 | 0.00 | 83 | 1013.5 |
| 20260903080533 | 76 | 0.0 | 0.0 | 0.00 | 0.00 | 0.00 | 83 | 1013.5 | |
| 20260903080033 | 77 | 167 | 0.0 | 1.0 | 0.00 | 0.00 | 0.00 | 83 | 1013.5 |
| 20260903075613 | 77 | 0.0 | 0.0 | 0.00 | 0.00 | 0.00 | 82 | 1013.4 | |
| 20260903075116 | 77 | 0.0 | 0.0 | 0.00 | 0.00 | 0.00 | 82 | 1013.4 | |
| 20260903074616 | 77 | 0.0 | 0.0 | 0.00 | 0.00 | 0.00 | 82 | 1013.4 | |
| 20260903074034 | 77 | 0.0 | 0.0 | 0.00 | 0.00 | 0.00 | 82 | 1013.4 | |
| 20260903073533 | 77 | 0.0 | 0.0 | 0.00 | 0.00 | 0.00 | 81 | 1013.5 | |
| 20260903073034 | 77 | 0.0 | 0.0 | 0.00 | 0.00 | 0.00 | 80 | 1013.5 | |
| 20260903072525 | 78 | 0.0 | 0.0 | 0.00 | 0.00 | 0.00 | 79 | 1013.5 | |
| 20260903072108 | 78 | 0.0 | 0.0 | 0.00 | 0.00 | 0.00 | 79 | 1013.5 | |
| 20260903071549 | 78 | 0.0 | 0.0 | 0.00 | 0.00 | 0.00 | 79 | 1013.7 | |
| 20260903071033 | 79 | 0.0 | 0.0 | 0.00 | 0.00 | 0.00 | 78 | 1013.8 | |
| 20260903070525 | 79 | 173 | 1.0 | 3.0 | 0.00 | 0.00 | 0.00 | 78 | 1013.6 |
| 20260903070129 | 79 | 164 | 0.0 | 2.0 | 0.00 | 0.00 | 0.00 | 78 | 1013.6 |
| 20260903065548 | 79 | 165 | 0.0 | 1.0 | 0.00 | 0.00 | 0.00 | 77 | 1013.6 |
| 20260903065034 | 79 | 173 | 0.0 | 1.0 | 0.00 | 0.00 | 0.00 | 77 | 1013.8 |
| 20260903064612 | 80 | 159 | 0.0 | 1.0 | 0.00 | 0.00 | 0.00 | 77 | 1013.8 |
| 20260903064053 | 80 | 163 | 1.0 | 2.0 | 0.00 | 0.00 | 0.00 | 76 | 1013.9 |
| 20260903063533 | 80 | 167 | 0.0 | 1.0 | 0.00 | 0.00 | 0.00 | 76 | 1013.9 |
| 20260903063030 | 80 | 162 | 0.0 | 1.0 | 0.00 | 0.00 | 0.00 | 76 | 1014.0 |
| 20260903062613 | 80 | 118 | 0.0 | 2.0 | 0.00 | 0.00 | 0.00 | 75 | 1014.1 |
| 20260903062052 | 80 | 165 | 1.0 | 2.0 | 0.00 | 0.00 | 0.00 | 74 | 1014.0 |
| 20260903061534 | 80 | 173 | 0.0 | 1.0 | 0.00 | 0.00 | 0.00 | 74 | 1014.1 |
| 20260903061116 | 80 | 161 | 0.0 | 1.0 | 0.00 | 0.00 | 0.00 | 74 | 1014.1 |
| 20260903060556 | 80 | 155 | 1.0 | 5.0 | 0.00 | 0.00 | 0.00 | 74 | 1014.1 |
| 20260903060035 | 80 | 181 | 1.0 | 2.0 | 0.00 | 0.00 | 0.00 | 74 | 1014.0 |
| 20260903055620 | 80 | 153 | 0.0 | 1.0 | 0.00 | 0.00 | 0.00 | 74 | 1014.1 |
| 20260903055100 | 81 | 0.0 | 0.0 | 0.00 | 0.00 | 0.00 | 73 | 1014.0 | |
| 20260903054534 | 81 | 152 | 0.0 | 1.0 | 0.00 | 0.00 | 0.00 | 73 | 1014.0 |
| 20260903054108 | 81 | 146 | 1.0 | 3.0 | 0.00 | 0.00 | 0.00 | 73 | 1014.0 |
| 20260903053608 | 81 | 0.0 | 0.0 | 0.00 | 0.00 | 0.00 | 73 | 1014.1 | |
| 20260903053030 | 81 | 164 | 0.0 | 1.0 | 0.00 | 0.00 | 0.00 | 72 | 1014.1 |
| 20260903052612 | 82 | 164 | 0.0 | 1.0 | 0.00 | 0.00 | 0.00 | 72 | 1014.1 |
| 20260903052113 | 82 | 139 | 0.0 | 1.0 | 0.00 | 0.00 | 0.00 | 71 | 1014.1 |
| 20260903051534 | 82 | 163 | 0.0 | 1.0 | 0.00 | 0.00 | 0.00 | 71 | 1014.0 |
| 20260903051117 | 82 | 172 | 0.0 | 1.0 | 0.00 | 0.00 | 0.00 | 70 | 1014.0 |
| 20260903050617 | 83 | 165 | 0.0 | 1.0 | 0.00 | 0.00 | 0.00 | 70 | 1013.9 |
| 20260903050037 | 83 | 169 | 0.0 | 1.0 | 0.00 | 0.00 | 0.00 | 69 | 1013.9 |
| 20260903045620 | 83 | 178 | 1.0 | 1.0 | 0.00 | 0.00 | 0.00 | 69 | 1013.9 |